Regional Weather Roundup
Issued by NWS

Home | Current Version | Previous Version | Text Only | Print | Product List | Glossary On
Versions: 1 2 3 4 5 6 7 8 9 10 11 12 13 14 15 16 17 18 19 20 21 22 23 24 25 26 27 28 29 30 31 32 33 34 35 36 37 38 39 40 41 42 43 44 45 46 47 48 49 50
000
ASUS43 KLSX 290707
RWRMO

WEATHER SUMMARY FOR MISSOURI
NATIONAL WEATHER SERVICE SPRINGFIELD MO
200 AM CDT WED JUL 29 2015

NOTE: "FAIR" INDICATES FEW OR NO CLOUDS BELOW 12,000 FEET WITH NO
       SIGNIFICANT WEATHER AND/OR OBSTRUCTIONS TO VISIBILITY.
       CURRENT SKY AND/OR WEATHER CONDITIONS ARE NOT AVAILABLE FOR
       CHILLICOTHE AND FARMINGTON.

MOZ001>031-035>038-043-044-053-054-290800-
...NORTHERN AND WESTERN MISSOURI...

CITY           SKY/WX    TMP DP  RH WIND       PRES   REMARKS
KANSAS CTY INT CLOUDY    80  76  87 N16       29.99R
KANSAS C DTWN  CLOUDY    86  73  65 W7        29.96R HX  93
LEE`S SUMMIT   CLOUDY    82  72  71 SW6       29.98R
ST JOSEPH      TSTM      72  71  97 SW5       30.03F VSB 1
CHILLICOTHE      N/A     73  72  96 NE13G20   30.05R
KIRKSVILLE     CLOUDY    75  66  73 NW17G28   30.01S

$$
MOZ066>068-077>081-088>096-101>105-290800-
...SOUTHWEST MISSOURI...

CITY           SKY/WX    TMP DP  RH WIND       PRES   REMARKS
SPRINGFIELD    CLEAR     79  73  82 S6        30.01F
JOPLIN         CLEAR     78  74  87 S7        29.99F

$$
MOZ032>034-039>042-045>050-055>058-069>072-290800-
...CENTRAL MISSOURI...

CITY           SKY/WX    TMP DP  RH WIND       PRES   REMARKS
COLUMBIA       CLEAR     79  76  90 SW5       29.98R
JEFFERSON CITY CLEAR     80  76  87 CALM      29.96R
ROLLA          CLEAR     77  74  90 S7        29.98F
SEDALIA        CLEAR     79  74  84 S5        29.98S
WHITEMAN AFB   CLEAR     77  74  90 S7        29.96R
WARRENSBURG    CLEAR     77  72  83 CALM      29.97R
OSAGE BEACH    CLEAR     79  73  83 S3        29.99S

$$
MOZ051-052-059>065-290800-
...EAST CENTRAL MISSOURI...

CITY           SKY/WX    TMP DP  RH WIND       PRES   REMARKS
ST LOUIS INTL  PTCLDY    86  76  71 SW6       29.96R HX  96
SPIRIT OF STL  CLEAR     81  78  91 W3        29.94R
ST CHARLES     CLEAR     81  79  94 SW3       29.93S HX  90

$$
MOZ072>076-082>087-097>100-106>115-290800-
...SOUTH CENTRAL AND SOUTHEAST MISSOURI...

CITY           SKY/WX    TMP DP  RH WIND       PRES   REMARKS
CAPE GIRARDEAU MOCLDY    79  76  90 CALM      29.96F
FARMINGTON     PTCLDY    77  75  94 CALM      30.03F
POPLAR BLUFF   PTCLDY    80  78  94 CALM      29.95F FOG
WEST PLAINS    CLEAR     78  74  87 CALM      30.03F

$$


USA.gov is the U.S. government's official web portal to all federal, state and local government web resources and services.